Regional Weather Roundup
Issued by NWS

Home | Current Version | Previous Version | Graphics & Text | Print | Product List | Glossary On
Versions: 1 2 3 4 5 6 7 8 9 10 11 12 13 14 15 16 17 18 19 20 21 22 23 24 25 26 27 28 29 30 31 32 33 34 35 36 37 38 39 40 41 42 43 44 45 46 47 48 49 50
000
ASUS43 KFSD 241710
RWRSD

WEATHER ROUNDUP FOR SOUTH DAKOTA
NATIONAL WEATHER SERVICE SIOUX FALLS SD
1100 AM CST SAT FEB 24 2018

NOTE: "FAIR" INDICATES FEW OR NO CLOUDS BELOW 12,000 FEET WITH NO
SIGNIFICANT WEATHER AND/OR OBSTRUCTIONS TO VISIBILITY.


SDZ001>005-009-010-012>017-241800-
NORTHWEST AND NORTH CENTRAL SOUTH DAKOTA

CITY           SKY/WX    TMP DP  RH WIND       PRES   REMARKS
BUFFALO          N/A     15   6  67 W15       29.66F WCI   0
FAITH            N/A     10   8  92 S7        29.75F WCI  -1
MOBRIDGE       SNOW      17  13  84 CALM      29.81F VSB 1/2
$$

SDZ012>016-024>037-041>051-057-063-072>074-241800-
SOUTHWEST AND SOUTH CENTRAL SOUTH DAKOTA

CITY           SKY/WX    TMP DP  RH WIND       PRES   REMARKS
RAPID CTY ARPT MOSUNNY   21  11  65 N21       29.71F WCI   5
PIERRE         LGT SNOW  15  13  91 SE12      29.79F VSB 3/4 WCI   2
CUSTER         SUNNY     23   7  50 N8        29.60F WCI  14
ELLSWORTH AFB  MOSUNNY   23  10  57 N16       29.70F WCI  10
PHILIP         LGT SNOW  19  16  88 N6        29.76F VSB 3/4 WCI  11
PINE RIDGE     MOSUNNY   26  10  50 W15G25    29.72F WCI  14
SPEARFISH        N/A     25   7  46 NW13G20   29.73F WCI  13
WINNER         LGT SNOW  17  12  80 SE17      29.79F WCI   1
$$

SDZ004>011-016>023-039-040-241800-
NORTHEAST SOUTH DAKOTA

CITY           SKY/WX    TMP DP  RH WIND       PRES   REMARKS
ABERDEEN       SNOW      13   8  81 SE10      29.95F VSB 1/2 WCI   0
WATERTOWN      LGT SNOW  16  13  88 SE8       29.93F VSB 3/4 WCI   5
BROOKINGS      SNOW      16  12  86 E9        29.91F VSB 1/4 WCI   4
SISSETON         N/A     15  10  80 S12       29.99F WCI   2
$$

SDZ017-020-022-023-036>040-048>070-241800-
SOUTHEAST SOUTH DAKOTA

CITY           SKY/WX    TMP DP  RH WIND       PRES   REMARKS
SIOUX FALLS    SNOW      17  13  84 NE10      29.90F VSB 1/4 WCI   5
HURON          SNOW      12   9  87 NE9       29.89F VSB 1/4 WCI   0
CHAMBERLAIN    LGT SNOW  14  13  94 E13       29.83F VSB 3/4 WCI   0
MITCHELL       SNOW      16  13  88 E10       29.88F VSB 1/2 WCI   4
YANKTON        MIX PCPN  20  17  88 E9        29.87F WCI   9
$$

ABBREVIATIONS USED IN REMARKS
   TC - TEMPERATURE IN CELSIUS
  WCI - WIND CHILL INDEX
   HX - HEAT INDEX
  VSB - VISIBILITY





USA.gov is the U.S. government's official web portal to all federal, state and local government web resources and services.